Simultaneous Nadir Overpasses (SNOs) Predictions

Prediction of SNOs between NPP and TERRA Satellite Orbit:

Table of predicted SNOs for the next 14.0 days since TLE Epoch: 2/26/2012
Index Date (NPP) Time (NPP) Lat,Lon (NPP) SZA (NPP ) Date (TERRA) Time (TERRA) Lat,Lon (TERRA) SZA (TERRA ) Distance(km) Time Diff (sec)
1 02/28/2012 02:55:32 -68.54, -45.64 103.28 02/28/2012 02:56:43 -68.53, -45.37 103.31 10.77 71
2 02/28/2012 03:46:14 68.32, 121.96 76.49 02/28/2012 03:46:12 68.31, 122.01 76.47 2.27 2
3 02/28/2012 04:36:55 -68.16, -70.53 103.69 02/28/2012 04:35:43 -68.14, -70.56 103.71 2.88 72
4 03/01/2012 19:12:24 -68.38, 70.33 104.46 03/01/2012 19:13:13 -68.39, 70.34 104.46 1.34 49
5 03/01/2012 20:03:07 68.21,-122.15 75.36 03/01/2012 20:02:41 68.22,-122.21 75.37 2.87 26
6 03/01/2012 20:53:33 -67.25, 46.34 105.65 03/01/2012 20:52:25 -67.33, 44.40 105.51 83.97 68
7 03/04/2012 10:38:52 69.23, 17.63 75.41 03/04/2012 10:40:00 69.08, 19.47 75.20 74.47 68
8 03/04/2012 11:29:19 -68.32,-173.84 105.55 03/04/2012 11:29:42 -68.31,-173.87 105.57 2.12 23
9 03/04/2012 12:20:03 68.22, -6.39 74.33 03/04/2012 12:19:09 68.19, -6.36 74.31 2.72 54
10 03/07/2012 02:55:32 68.38, 134.54 73.48 03/07/2012 02:56:39 68.39, 134.49 73.49 2.76 67
11 03/07/2012 03:46:14 -68.27, -58.01 106.64 03/07/2012 03:46:09 -68.29, -58.00 106.63 1.72 5
12 03/07/2012 04:36:52 67.84, 109.84 72.90 03/07/2012 04:35:40 67.95, 109.24 73.03 27.67 72
13 03/09/2012 19:12:28 68.38,-109.70
